This demonstration page uses our WeatherBlox Daily Observations layout. Learn more.

Left ArrowRight Arrow

47.50024, -111.30081

Hourly Observations for June 18, 2020

Temp ( °F °C ) Dew Point ( °F °C ) Humidity (%) Winds ( mph kmh ) Pressure ( in mb ) Visibility ( mi km ) Precip ( " mm )
12:53 am 00:53 Cloudy with Light Rain 49 9.4 45 7.2 86 86 W 13 20 30.15 1021 7 11 0.10 2.54
1:53 am 01:53 Cloudy with Light Rain 48 8.9 45 7.2 89 89 WSW 9 15 30.16 1021 10 16 0.05 1.27
2:53 am 02:53 Cloudy with Light Rain 48 8.9 46 7.8 93 93 SW 10 17 30.15 1021 7 11 0.03 0.76
3:53 am 03:53 Cloudy with Light Rain 48 8.9 45 7.2 89 89 WSW 9 15 30.13 1020 7 11 0.05 1.27
4:53 am 04:53 Cloudy with Light Rain 48 8.9 45 7.2 89 89 WSW 12 19 30.16 1021 7 11 0.03 0.76
5:53 am 05:53 Cloudy with Light Rain 48 8.9 45 7.2 89 89 WSW 9 15 30.15 1021 7 11 0.05 1.27
6:11 am 06:11 Cloudy with Light Rain 48 8.9 45 7.2 89 89 WSW 9 15 30.13 1020 5 8 0.02 0.51
6:53 am 06:53 Cloudy 48 8.9 46 7.8 93 93 WSW 10 17 30.17 1022 10 16 0.04 1.02
7:26 am 07:26 Cloudy with Light Rain 48 8.9 46 7.8 93 93 W 9 15 30.16 1021 10 16 0.00 0.00
7:33 am 07:33 Cloudy with Light Rain 49 9.4 46 7.8 90 90 W 13 20 30.15 1021 10 16 0.00 0.00
7:48 am 07:48 Cloudy with Light Rain 48 9 45 7 87 87 NW 15 24 30.17 1022 2 3 0.00 0.00
7:53 am 07:53 Cloudy with Light Rain 48 8.9 46 7.8 93 93 NW 14 22 30.20 1023 2 3 0.00 0.00
8:02 am 08:02 Cloudy with Light Rain 48 8.9 45 7.2 89 89 N 17 28 30.18 1022 3 4 0.01 0.25
8:10 am 08:10 Cloudy 48 8.9 44 6.7 86 86 NNW 14 22 30.18 1022 10 16 0.01 0.25
8:22 am 08:22 Cloudy with Light Rain 48 8.9 44 6.7 86 86 NNW 13 20 30.18 1022 8 13 0.01 0.25
8:39 am 08:39 Cloudy 49 9.4 44 6.7 83 83 N 12 19 30.18 1022 10 16 0.01 0.25
8:53 am 08:53 Cloudy 49 9.4 45 7.2 86 86 N 14 22 30.22 1023 10 16 0.01 0.25
9:00 am 09:00 Cloudy 50 10 45 7.2 83 83 NNW 15 24 30.19 1022 10 16 0.00 0.00
9:53 am 09:53 Cloudy 52 11.1 44 6.7 75 75 NNW 13 20 30.23 1024 10 16 0.00 0.00
10:37 am 10:37 Cloudy 51 10.6 43 6.1 74 74 NNW 14 22 30.18 1022 10 16 0.00 0.00
10:53 am 10:53 Cloudy with Light Rain 50 10 43 6.1 77 77 NNW 9 15 30.24 1024 10 16 0.00 0.00
11:16 am 11:16 Cloudy 53 11.7 44 6.7 72 72 NW 9 15 30.17 1022 10 16 0.00 0.00
11:24 am 11:24 Cloudy 55 12.8 44 6.7 67 67 NNW 9 15 30.16 1021 10 16 0.00 0.00
11:53 am 11:53 Cloudy 55 12.8 42 5.6 62 62 NW 14 22 30.23 1024 10 16 0.00 0.00
12:53 pm 12:53 Cloudy 56 13.3 40 4.4 55 55 NNW 14 22 30.21 1023 10 16 0.00 0.00
1:53 pm 13:53 Cloudy 57 13.9 41 5 55 55 NNW 9 15 30.21 1023 10 16 0.00 0.00
2:53 pm 14:53 Cloudy 58 14.4 40 4.4 51 51 NNW 12 19 30.20 1023 10 16 0.00 0.00
3:53 pm 15:53 Cloudy 59 15 41 5 51 51 NW 10 17 30.19 1022 10 16 0.00 0.00
4:53 pm 16:53 Cloudy 60 15.6 43 6.1 53 53 WSW 12 19 30.18 1022 10 16 0.00 0.00
5:53 pm 17:53 Mostly Cloudy 58 14.4 44 6.7 60 60 SW 10 17 30.17 1022 10 16 0.00 0.00
6:53 pm 18:53 Cloudy 60 15.6 44 6.7 56 56 SW 12 19 30.15 1021 10 16 0.00 0.00
7:53 pm 19:53 Sunny 57 13.9 43 6.1 60 60 SW 9 15 30.14 1021 10 16 0.00 0.00
8:53 pm 20:53 Mostly Cloudy 55 12.8 44 6.7 67 67 SSW 8 13 30.14 1021 10 16 0.00 0.00
9:53 pm 21:53 Cloudy 53 11.7 44 6.7 72 72 SSW 6 9 30.14 1021 10 16 0.00 0.00
10:53 pm 22:53 Mostly Cloudy 51 10.6 44 6.7 77 77 SSW 7 11 30.14 1021 10 16 0.00 0.00
11:53 pm 23:53 Mostly Clear 49 9.4 43 6.1 80 80 S 8 13 30.11 1020 10 16 0.00 0.00

Powered by AerisWeather